STARLINK-32883, 62806

Orbit data source: Space-Track

STARLINK-32883, 62806 is a payload satellite owned by SpaceX/Seattle (US) in LEO that was launched on Fri, 24 Jan 2025 UTC via an FALCON 9 launch vehicle from the Air Force Western Test Range (AFWTR). Payload-class satellites include a variety of spacecraft equipped with specific instruments for various scientific and technological missions. These include communications satellites like Starlink; space stations such as the ISS; scientific satellites like the Hubble; Earth observation satellites from companies like Planet Labs, Umbra, and HawkEye 360; GPS; miniature CubeSats for education and research; and military/defense satellites.

Loading next visibility...
Identifier
62806, 2025-018A
Orbit
LEO
Country
Flag of USUS
Related business
Manufacturer
SpaceX/Seattle
Mission
Operational spacecraft
Bus & Motor
STARLINK V2M, Unknown motor
Mass
730 kg wet, ~700 kg dry
Launch date (UTC)
2025-01-24 (9 months ago)
Launch vehicle
FALCON 9
Launch site
Air Force Western Test Range (AFWTR)
Object type
Payload
Rocket body
Debris
Shape & HBR
Unknown shape, 17.7 m
Radar Cross Section
Large (>1 m²)

Expand to show TLE details & history
Last TLE update: 11 hours ago

TLE from 11 hours ago
0 STARLINK-32883
1 62806U 25018A   25289.10929016  .00038201  00000-0  12952-2 0  9997
2 62806  53.1604 261.0814 0001523  97.3843 262.7331 15.30202345 41958
Epoch: 2025-10-16T02:37Z
TLE epoch observation values (Epoch: 2025-10-16T02:37:22.669Z)
Latitude
-0.00003°
Longitude
-163.13681°
Altitude
476.24 km
Speed
7.629 km/s
True Right ascension
17h 24m 19s
True Declination
0° 00' 00"
Sunlit
Object was in daylight at epoch
Visualization orbit readout
Latitude
Unknown
Longitude
Unknown
Altitude
Unknown
Speed
Unknown
Apparent Right ascension
Unknown
Apparent Declination
Unknown
Sunlit
N/A
Visualization observer readout
Local Sidereal Time
07:54:28
Azimuth
Unknown
Elevation
Unknown
Doppler factor
Unknown
Orbital elements
Apogee altitude
476.508 km
Perigee altitude
474.421 km
Semi-major axis
6,853.601 km
Eccentricity
0.00015
Inclination
53.1604°
RAAN
261.0814°
Arg. of periapsis
97.3843°
True anomaly
262.71579°
Mean anomaly
262.7331°
Eccentric anomaly
262.72444°
Mean motion
3.82529 °/min
Orbital period
94.11 mins
BSTAR
0.0012952
Loading maneuver chart data...
Computing Atmospheric mass density...
Loading historical data...
Loading historical data...
Loading historical data...
Loading historical data...
Loading historical data...
Loading historical data...
Loading historical data...

Documentation

Showing up to 5 results
|